DH9NFM-12 Weather Reports


time (UTC)temp
F
wind
direction
speed
knots
gust
knots
rain 1hr
in
rain 24hr
in
rain mn
in
humidity
%
barometer
mb
20260507091004 47 0 0.9 0.0 0.01 0.00 0.00 10 1010.3
20260507085939 47 45 2.6 0.0 0.01 0.00 0.00 10 1010.2
20260507084914 47 90 0.9 0.0 0.01 0.00 0.00 10 1010.1
20260507082824 47 90 2.6 0.0 0.00 0.00 0.00 10 1009.8
20260507075710 47 0 1.7 0.0 0.05 0.00 0.00 10 1009.4
20260507074645 47 0 0.9 0.0 0.04 0.00 0.00 10 1009.3
20260507073620 47 90 2.6 0.0 0.04 0.00 0.00 10 1009.2
20260507071531 47 0 0.9 0.0 0.01 0.00 0.00 10 1009.1
20260507070506 47 90 0.9 0.0 0.05 0.00 0.00 10 1008.9
20260507065441 47 180 0.9 0.0 0.05 0.00 0.00 10 1008.9
20260507064416 47 135 2.6 0.0 0.04 0.00 0.00 10 1008.8
20260507063352 47 90 1.7 0.0 0.03 0.00 0.00 10 1008.7
20260507060237 46 0 1.7 0.0 0.05 0.00 0.00 10 1008.5
20260507054147 46 0 3.5 0.0 0.03 0.00 0.00 10 1008.3
20260507053123 46 180 4.3 0.0 0.02 0.00 0.00 10 1008.1
20260507052058 46 180 0.9 0.0 0.01 0.00 0.00 10 1008.1
20260507051033 46 90 0.9 0.0 0.00 0.00 0.00 10 1008.1
20260507050008 46 180 2.6 0.0 0.00 0.00 0.00 10 1008.0
20260507042854 47 0 1.7 0.0 0.00 0.00 0.00 10 1007.7
20260507040804 47 0 1.7 0.0 0.00 0.00 0.00 10 1007.4
20260507035739 47 90 4.3 0.0 0.01 0.00 0.00 10 1007.4
20260507034715 47 180 0.9 0.0 0.00 0.00 0.00 10 1007.4
20260507033650 47 0 0.9 0.0 0.00 0.00 0.00 10 1007.3
20260507030535 47 0 0.9 0.0 0.00 0.00 0.00 10 1007.2
20260507024446 47 90 0.9 0.0 0.01 0.00 0.00 10 1007.2
20260507023421 47 90 0.9 0.0 0.01 0.00 0.00 10 1007.3
20260507021331 47 180 0.9 0.0 0.01 0.00 0.00 10 1007.2
20260507020307 47 90 0.9 0.0 0.01 0.00 0.00 10 1007.2
20260507015242 48 90 1.7 0.0 0.11 0.00 0.00 10 1007.1
20260507014217 49 90 0.9 0.0 0.10 0.00 0.00 10 1007.1
20260507012127 49 0 0.9 0.0 0.08 0.00 0.00 10 1007.0
20260507010038 49 0 0.9 0.0 0.02 0.00 0.00 10 1007.0
20260507005013 49 90 0.9 0.0 0.10 0.00 0.00 10 1007.0
20260507003948 49 90 0.9 0.0 0.08 0.00 0.00 10 1006.9
20260507002923 49 0 0.9 0.0 0.03 0.00 0.00 10 1006.9
20260507001858 50 90 0.9 0.0 0.01 0.00 0.00 10 1006.8
20260507000834 50 90 1.7 0.0 0.00 0.00 0.00 10 1006.8
20260506233719 50 0 0.9 0.0 0.03 0.00 0.00 10 1006.9
20260506231630 50 45 0.9 0.0 0.01 0.00 0.00 10 1006.9
20260506230605 50 0 0.9 0.0 0.00 0.00 0.00 10 1006.8
20260506224515 50 0 0.9 0.0 0.01 0.00 0.00 10 1006.8
20260506223450 50 90 2.6 0.0 0.01 0.00 0.00 10 1006.8
20260506221401 50 0 0.9 0.0 0.00 0.00 0.00 10 1006.8
20260506220336 51 270 0.9 0.0 0.00 0.00 0.00 10 1006.8
20260506214246 51 0 1.7 0.0 0.00 0.00 0.00 10 1006.9
20260506212157 51 0 2.6 0.0 0.00 0.00 0.00 10 1006.9
20260506211132 51 180 1.7 0.0 0.00 0.00 0.00 10 1006.7
20260506210107 52 180 1.7 0.0 0.00 0.00 0.00 10 1006.6
20260506202953 53 45 0.0 0.0 0.00 0.00 0.00 10 1006.5
20260506201928 53 0 0.0 0.0 0.00 0.00 0.00 10 1006.5
20260506200903 53 0 0.0 0.0 0.00 0.00 0.00 10 1006.5
20260506195838 53 0 0.0 0.0 0.00 0.00 0.00 10 1006.5
20260506194813 53 0 0.0 0.0 0.00 0.00 0.00 10 1006.4
20260506193749 53 0 0.0 0.0 0.00 0.00 0.00 10 1006.2
20260506192724 53 0 0.0 0.0 0.00 0.00 0.00 10 1005.9
20260506190634 53 45 0.0 0.0 0.00 0.00 0.00 10 1005.8
20260506184545 54 0 2.6 0.0 0.00 0.00 0.00 10 1005.5
20260506183520 54 180 1.7 0.0 0.00 0.00 0.00 10 1005.4
20260506182455 54 180 5.2 0.0 0.00 0.00 0.00 10 1005.4
20260506180405 56 90 0.0 0.0 0.00 0.00 0.00 10 1005.2
20260506175340 56 0 0.9 0.0 0.00 0.00 0.00 10 1005.2
20260506174316 56 180 1.7 0.0 0.00 0.00 0.00 10 1005.1
20260506173251 56 180 0.9 0.0 0.00 0.00 0.00 10 1005.0
20260506172226 57 180 2.6 0.0 0.00 0.00 0.00 10 1005.0
20260506171201 57 180 0.9 0.0 0.00 0.00 0.00 10 1005.0
20260506170136 57 180 0.9 0.0 0.00 0.00 0.00 10 1004.8
20260506165112 58 0 0.0 0.0 0.00 0.00 0.00 10 1004.8
20260506163022 59 0.0 0.0 0.00 0.00 0.00 10 1004.9
20260506161957 59 0 0.0 0.0 0.00 0.00 0.00 10 1005.1
20260506160932 59 90 0.0 0.0 0.00 0.00 0.00 10 1005.1
20260506151729 61 0 0.0 0.0 0.00 0.00 0.00 91 1004.9
20260506145639 61 0 3.5 0.0 0.00 0.00 0.00 94 1005.1
20260506144615 61 180 2.6 0.0 0.00 0.00 0.00 92 1005.1
20260506143550 60 180 1.7 0.0 0.00 0.00 0.00 95 1005.2
20260506142526 60 180 3.5 0.0 0.00 0.00 0.00 98 1005.3
20260506140436 60 90 2.6 0.0 0.00 0.00 0.00 10 1005.3
20260506135411 60 180 3.5 0.0 0.00 0.00 0.00 95 1005.3
20260506134347 60 180 2.6 0.0 0.00 0.00 0.00 95 1005.3
20260506133322 60 180 0.9 0.0 0.00 0.00 0.00 94 1005.4
20260506131233 62 0 9.6 0.0 0.00 0.00 0.00 98 1005.5
20260506130208 61 180 6.1 0.0 0.00 0.00 0.00 10 1005.6
20260506125143 59 180 1.7 0.0 0.00 0.00 0.00 10 1005.6
20260506124119 59 180 0.9 0.0 0.00 0.00 0.00 10 1005.7
20260506123054 59 90 2.6 0.0 0.00 0.00 0.00 10 1005.7
20260506122029 61 180 2.6 0.0 0.00 0.00 0.00 10 1005.7
20260506121004 61 180 0.9 0.0 0.00 0.00 0.00 10 1005.6
20260506115939 61 270 0.9 0.0 0.00 0.00 0.00 10 1005.7
20260506114915 59 0 1.7 0.0 0.00 0.00 0.00 10 1005.8
20260506113850 57 90 5.2 0.0 0.00 0.00 0.00 10 1005.9
20260506112825 58 180 0.9 0.0 0.00 0.00 0.00 10 1005.9
20260506111800 59 90 0.9 0.0 0.00 0.00 0.00 10 1005.9
20260506110735 57 0 3.5 0.0 0.00 0.00 0.00 10 1005.9
20260506105710 56 180 1.7 0.0 0.00 0.00 0.00 10 1005.9
20260506104646 56 90 2.6 0.0 0.00 0.00 0.00 10 1006.0
20260506103621 57 180 4.3 0.0 0.00 0.00 0.00 10 1006.0
20260506102556 57 180 0.9 0.0 0.00 0.00 0.00 10 1005.9
20260506101531 57 90 0.9 0.0 0.00 0.00 0.00 10 1006.0
20260506095442 56 0 1.7 0.0 0.00 0.00 0.00 10 1006.0
20260506094417 55 90 0.9 0.0 0.00 0.00 0.00 10 1006.0
20260506093352 56 0 6.1 0.0 0.00 0.00 0.00 10 1006.0
20260506092327 58 180 6.1 0.0 0.00 0.00 0.00 10 1005.9